Weather History for KGNA - February, 2013

Change the Weather History Date:

Monday, February 18, 2013

  Actual Average (KCKC) Record (KCKC)
Temperature  
Mean Temperature 24 °F -  
Max Temperature 30 °F 21 °F 42 °F (2002)
Min Temperature 15 °F 6 °F -23 °F (2015)
Degree Days  
Heating Degree Days 41    
Moisture  
Dew Point 20 °F    
Average Humidity 71    
Maximum Humidity 82    
Minimum Humidity 61    
Precipitation  
Precipitation 0.01 in - - ()
Sea Level Pressure  
Sea Level Pressure 29.62 in    
Wind  
Wind Speed 9 mph (South)    
Max Wind Speed 30 mph    
Max Gust Speed 45 mph    
Averages and records for this station are not official NWS values.
T = Trace of Precipitation, MM = Missing Value Source: NWS Daily Summary

Daily Weather History Graph

Daily Weather History Graph

Search for Another Location

Airport or City:

Trip Planner

Search our weather history database for the weather conditions in past years. The results will help you decide how hot, cold, wet, or windy it might be!

Date:

Astronomy

Feb. 18, 2013 Rise Set
Actual Time 7:01 AM CST 5:29 PM CST
Civil Twilight 6:30 AM CST 6:01 PM CST
Nautical Twilight 5:54 AM CST 6:37 PM CST
Astronomical Twilight 5:18 AM CST 7:12 PM CST
Moon 11:02 AM CST (2/18) 1:53 AM CST (2/18)
Length of Visible Light 11h 31m
Length of Day
10h 27m
First Quarter, 58% of the Moon is Illuminated
Feb 18
First Quarter
Feb 25
Full
Mar 4
Last Quarter
Mar 11
New
Mar 19
First Quarter

Hourly Weather History & Observations

Time (CST) Temp. Windchill Dew Point Humidity Pressure Visibility Wind Dir Wind Speed Gust Speed Precip Events Conditions
12:56 AM 28.9 °F 16.9 °F 19.0 °F 67% 29.78 in - SSW 17.3 mph 24.2 mph N/A   Unknown
1:56 AM 28.0 °F 17.0 °F 19.0 °F 69% 29.76 in - SSW 13.8 mph - N/A   Unknown
2:56 AM 28.9 °F 19.8 °F 19.0 °F 67% 29.73 in - South 10.4 mph - N/A   Unknown
3:56 AM 30.0 °F 21.7 °F 19.9 °F 66% 29.70 in - South 9.2 mph - N/A   Unknown
4:56 AM 30.0 °F 22.4 °F 21.0 °F 69% 29.68 in - SSE 8.1 mph - N/A   Unknown
5:56 AM 30.0 °F 21.7 °F 21.0 °F 69% 29.68 in - SSE 9.2 mph - N/A   Unknown
6:56 AM 30.0 °F 25.2 °F 21.0 °F 69% 29.64 in - SE 4.6 mph - N/A   Unknown
7:56 AM 30.0 °F 25.2 °F 21.0 °F 69% 29.62 in - SE 4.6 mph - N/A   Unknown
8:56 AM 30.9 °F 23.5 °F 21.9 °F 69% 29.61 in - SSE 8.1 mph - N/A   Unknown
9:56 AM 30.9 °F 26.2 °F 23.0 °F 72% 29.58 in - SE 4.6 mph - N/A   Unknown
10:56 AM 30.9 °F 25.2 °F 24.1 °F 76% 29.58 in - South 5.8 mph - N/A   Unknown
11:56 AM 30.9 °F 27.5 °F 23.0 °F 72% 29.57 in - SSW 3.5 mph - N/A   Unknown
12:56 PM 30.9 °F 26.2 °F 21.9 °F 69% 29.55 in - SW 4.6 mph - N/A   Unknown
1:56 PM 30.9 °F - 23.0 °F 72% 29.55 in - Calm Calm - N/A   Unknown
2:56 PM 30.9 °F - 24.1 °F 76% 29.55 in - Calm Calm - N/A   Unknown
3:56 PM 30.9 °F - 24.1 °F 76% 29.56 in - Calm Calm - N/A   Unknown
4:56 PM 30.9 °F - 25.0 °F 79% 29.57 in - Calm Calm - N/A   Unknown
5:56 PM 30.0 °F - 25.0 °F 82% 29.59 in - Calm Calm - N/A   Unknown
6:56 PM 30.0 °F - 25.0 °F 82% 29.59 in - Calm Calm - 0.01 in   Unknown
7:56 PM 30.0 °F - 23.0 °F 75% 29.58 in - Calm Calm - N/A   Unknown
8:56 PM 30.0 °F 25.2 °F 21.0 °F 69% 29.59 in - Variable 4.6 mph - N/A   Unknown
9:56 PM 23.0 °F 7.2 °F 12.9 °F 65% 29.59 in - NNW 23.0 mph 35.7 mph N/A   Unknown
10:56 PM 18.0 °F 0.2 °F 8.1 °F 65% 29.59 in - NNW 24.2 mph 42.6 mph N/A   Unknown
11:56 PM 15.1 °F -5.3 °F 3.9 °F 61% 29.60 in - NNW 29.9 mph 44.9 mph N/A   Unknown